Regional Weather Roundup
Issued by NWS

Home | Current Version | Previous Version | Text Only | Print | Product List | Glossary Off
Versions: 1 2 3 4 5 6 7 8 9 10 11 12 13 14 15 16 17 18 19 20 21 22 23 24 25 26 27 28 29 30 31 32 33 34 35 36 37 38 39 40 41 42 43 44 45 46 47 48 49 50

000
ASUS45 KABQ 260401
RWRNM
NEW MEXICO REGIONAL WEATHER ROUNDUP
NATIONAL WEATHER SERVICE ALBUQUERQUE NM
1000 PM MDT SUN JUN 25 2017

NOTE: "FAIR" MEANS FEW OR NO CLOUDS BELOW 12,000 FEET AGL WITH NO
       SIGNIFICANT WEATHER OR OBSTRUCTIONS TO VISION.

      THIS PRODUCT IS RELEASED AS TWO VERSIONS.  ONE VERSION NEAR
      THE TOP OF THE HOUR CONTAINING PRELIMINARY DATA FROM ALBUQUERQUE
      AND OTHER STATIONS.  A FINAL VERSION WITH ADDITIONAL DATA IS
      ISSUED ABOUT 10 MINUTES AFTER THE HOUR.

NMZ501-503-504-510>518-260500-
NORTHWEST PLATEAU/NORTHCENTRAL MOUNTAINS

CITY           SKY/WX    TMP DP  RH WIND       PRES   REMARKS
FARMINGTON     FAIR      77  43  29 SW13G18   30.12R
LOS ALAMOS     FAIR      61  48  62 SW13      30.37R
SANTA FE       FAIR      67  52  58 SE15      30.33R
TAOS           FAIR      63  46  55 SE8       30.36R
ANGEL FIRE     FAIR      53  50  89 CALM      30.48R

$$
NMZ402-403-502-505>509-260500-
WESTCENTRAL MOUNTAINS/SOUTHWEST MOUNTAINS

CITY           SKY/WX    TMP DP  RH WIND       PRES   REMARKS
GALLUP         FAIR      69  45  41 S13       30.30R
GRANTS         FAIR      65  47  53 S6        30.32F
SILVER CITY    MOCLDY    73  50  43 NW9       30.27R THUNDER

$$
NMZ407-409-411-412-260500-
SOUTHERN DESERTS

CITY           SKY/WX    TMP DP  RH WIND       PRES   REMARKS
DEMING         FAIR      73  59  61 E21G29    30.21R
LAS CRUCES     DRIZZLE   67  65  91 SW9       30.27R
HOLLOMAN AFB   FAIR      70  62  75 E6        30.26S
ALAMOGORDO     LGT RAIN  68  59  73 S7        30.26F
T OR C         FAIR      76  49  38 S12       30.24R

$$
NMZ519>523-260500-
CENTRAL VALLEYS/CENTRAL HIGHLANDS

CITY           SKY/WX    TMP DP  RH WIND       PRES   REMARKS
ALBUQUERQUE    CLOUDY    70  51  51 E3        30.27R
DOUBLE EAGLE   CLEAR     66  52  59 S9        30.30R
MORIARTY ARPT  FAIR      61  55  79 SW7       30.39R
CLINES CORNERS FAIR      56  51  84 E8        30.42R
BELEN          NOT AVBL
SOCORRO        FAIR      68  56  65 S7        30.27R

$$
NMZ524>526-539-540-260500-
SOUTHCENTRAL MOUNTAINS

CITY           SKY/WX    TMP DP  RH WIND       PRES   REMARKS
RUIDOSO        CLOUDY    55  54  94 SW6       30.45R

$$
NMZ527>531-260500-
NORTHEAST HIGHLANDS/NORTHEAST PLAINS

CITY           SKY/WX    TMP DP  RH WIND       PRES   REMARKS
LAS VEGAS      FAIR      55  52  89 S9        30.40R
RATON          MOCLDY    61  58  90 E7        30.37R
CLAYTON        FAIR      60  59  96 S10       30.28R

$$
NMZ532>537-260500-
EASTCENTRAL PLAINS

CITY           SKY/WX    TMP DP  RH WIND       PRES   REMARKS
SANTA ROSA     FAIR      59  56  88 E15       30.32S
TUCUMCARI      LGT RAIN  64  59  83 W14       30.24F
CANNON AFB     TSTM      65  64  96 NW10      30.30R
CLOVIS AIRPORT NOT AVBL

$$
NMZ028-029-538-260500-
SOUTHEAST PLAINS

CITY           SKY/WX    TMP DP  RH WIND       PRES   REMARKS
ROSWELL        TSTM      67  61  81 N15G25    30.26R
ARTESIA        DRIZZLE   68  64  88 NW30G41   30.20R
CARLSBAD       FAIR      84  56  38 SE7       30.12R
HOBBS          FAIR      77  59  53 SE14      30.19R


$$




USA.gov is the U.S. government's official web portal to all federal, state and local government web resources and services.